Hourly Data Report for September 21, 2020

BRIER ISLAND
NOVA SCOTIA
Current Station Operator: ECCC - MSC

44°17'09.000" N
66°20'48.000" W
15.80 m
8200604
71988
WVU

Download Data

Hourly Data (September 2020)
Hourly Data Report for September 21, 2020
TIME Temp Definition
°C
Dew Point Definition
°C
Rel Hum Definition
%
Wind Dir Definition
10's deg

Wind Spd Definition
km/h
Visibility Definition
km
Stn Press Definition
kPa
Hmdx Definition


Wind Chill Definition


Weather Definition


00:00 9.9 7.7 86 1 4   103.22     LegendNANA
01:00 9.0 6.5 85 6 6   103.24     LegendNANA
02:00 8.9 5.7 81 3 7   103.24     LegendNANA
03:00 9.0 5.0 76 7 12   103.26     LegendNANA
04:00 8.4 5.4 81 7 11   103.31     LegendNANA
05:00 8.7 5.9 82 6 12   103.32     LegendNANA
06:00 8.6 6.4 86 7 13   103.33     LegendNANA
07:00 9.8 6.8 82 6 14   103.37     LegendNANA
08:00 10.8 6.9 77 3 12   103.38     LegendNANA
09:00 11.8 8.0 78 36 8   103.41     LegendNANA
10:00 12.0 7.5 74 35 16   103.39     LegendNANA
11:00 12.5 5.6 63 36 18   103.36     LegendNANA
12:00 12.0 7.3 73 36 22   103.33     LegendNANA
13:00 12.4 6.7 68 36 20   103.28     LegendNANA
14:00 12.5 5.1 60 36 18   103.18     LegendNANA
15:00 12.4 4.2 57 35 20   103.11     LegendNANA
16:00 11.9 3.2 55 35 22   103.03     LegendNANA
17:00 11.8 3.4 57 36 18   102.94     LegendNANA
18:00 11.3 5.0 65 36 19   102.91     LegendNANA
19:00 11.1 6.0 70 35 18   102.88     LegendNANA
20:00 11.0 6.8 75 36 15   102.88     LegendNANA
21:00 10.6 6.4 75 1 14   102.78     LegendNANA
22:00 10.8 7.2 79 2 17   102.69     LegendNANA
23:00 10.6 7.7 82 1 13   102.64     LegendNANA

Notes on Data Quality.

Legend

  • E = Estimated
  • M = Missing
  • NA = Not Available*
  • [empty] = Indicates an unobserved value
Date modified: